This demonstration page uses our WeatherBlox Daily Observations layout. Learn more.

Left ArrowRight Arrow

39.12711, -84.51439

Hourly Observations for July 17, 2021

Temp ( °F °C ) Dew Point ( °F °C ) Humidity (%) Winds ( mph kmh ) Pressure ( in mb ) Visibility ( mi km ) Precip ( " mm )
12:14 am 00:14 Cloudy with Nearby Thunderstorms 70 21.1 67 19.4 90 90 NNW 3 6 30.00 1016 3 4 0.11 2.79
12:19 am 00:19 Cloudy with Strong Thunderstorms 70 21.1 68 20 93 93 N N/A 30.00 1016 2 3 0.15 3.81
12:30 am 00:30 Cloudy with Strong Thunderstorms 70 21.1 68 20 93 93 WSW 5 7 30.02 1016 2 3 0.23 5.84
12:33 am 00:33 Cloudy with Nearby Thunderstorms 69 20.6 68 20 96 96 SW 3 6 30.02 1017 2 3 0.26 6.60
12:45 am 00:45 Cloudy with Nearby Thunderstorms 70 21.1 68 20 93 93 SE 5 7 30.01 1016 3 5 0.31 7.87
12:53 am 00:53 Cloudy with Nearby Thunderstorms 70 21.1 69 20.6 97 97 N N/A 30.00 1016 4 6 0.34 8.64
1:01 am 01:01 Cloudy with Heavy Rain 70 21.1 68 20 93 93 N N/A 30.00 1016 4 6 0.05 1.27
1:07 am 01:07 Cloudy with Nearby Thunderstorms 70 21.1 69 20.6 97 97 N N/A 30.01 1016 3 4 0.08 2.03
1:13 am 01:13 Cloudy with Strong Thunderstorms 70 21.1 68 20 93 93 SW 5 7 30.02 1016 2 2 0.16 4.06
1:24 am 01:24 Cloudy with Nearby Thunderstorms 70 21.1 69 20.6 97 97 N N/A 30.00 1016 2 3 0.24 6.10
1:46 am 01:46 Cloudy with Rain 70 21.1 69 20.6 97 97 ENE 3 6 29.99 1015 4 6 0.33 8.38
1:53 am 01:53 Cloudy with Heavy Rain 70 21.1 69 20.6 97 97 SE 3 6 29.98 1015 4 6 0.37 9.40
2:00 am 02:00 Cloudy with Nearby Thunderstorms 70 21.1 69 20.6 97 97 N N/A 29.98 1015 4 6 0.03 0.76
2:15 am 02:15 Cloudy with Heavy Rain 70 21.1 69 20.6 97 97 SSE 5 7 29.97 1015 4 6 0.09 2.29
2:53 am 02:53 Mostly Clear 70 21.1 69 20.6 97 97 S 3 6 29.96 1015 10 16 0.11 2.79
3:08 am 03:08 Partly Cloudy 71 21.7 69 20.6 94 94 S 8 13 29.97 1015 10 16 N/A
3:53 am 03:53 Cloudy with Light Rain 71 21.7 69 20.6 94 94 S 9 15 29.98 1015 6 10 0.02 0.51
4:53 am 04:53 Cloudy with Light Rain 71 21.7 69 20.6 94 94 SSW 7 11 29.97 1015 6 10 0.08 2.03
5:53 am 05:53 Cloudy with Light Rain 71 21.7 70 21.1 96 96 SSW 7 11 29.98 1015 10 16 0.02 0.51
6:09 am 06:09 Cloudy with Light Rain 71 21.7 70 21.1 96 96 SSW 8 13 29.98 1015 10 16 0.00 0.00
6:28 am 06:28 Mostly Cloudy with Light Rain 71 21.7 69 20.6 94 94 SSW 6 9 29.98 1015 10 16 0.01 0.25
6:50 am 06:50 Mostly Cloudy 72 22 70 21 94 94 SSW 6 9 29.98 1015 10 16 0.01 0.25
6:53 am 06:53 Mostly Cloudy 71 21.7 70 21.1 96 96 SSW 5 7 29.98 1015 10 16 0.01 0.25
7:53 am 07:53 Cloudy 73 22.8 70 21.1 90 90 SSW 6 9 30.01 1016 8 13 0.00 0.00
8:28 am 08:28 Cloudy 73 22.8 71 21.7 94 94 SSW 9 15 30.01 1016 10 16 N/A
8:53 am 08:53 Cloudy 73 22.8 71 21.7 94 94 SSW 7 11 30.02 1017 10 16 N/A
9:53 am 09:53 Cloudy with Light Rain 73 22.8 70 21.1 90 90 WNW 9 15 30.03 1017 5 8 0.00 0.00
10:03 am 10:03 Cloudy with Light Rain 73 22.8 70 21.1 90 90 W 7 11 30.02 1017 6 10 0.00 0.00
10:27 am 10:27 Cloudy 74 23.3 70 21.1 88 88 W 8 13 30.03 1017 10 16 0.01 0.25
10:53 am 10:53 Cloudy 76 24.4 70 21.1 82 82 W 6 9 30.04 1017 10 16 0.01 0.25
11:53 am 11:53 Cloudy 77 25 72 22.2 85 85 undefined N/A 30.05 1018 10 16 0.02 0.51
12:10 pm 12:10 Cloudy 74 23.3 69 20.6 85 85 NNW 10 17 30.05 1018 10 16 N/A
12:53 pm 12:53 Cloudy 76 24.4 68 20 77 77 WNW 3 6 30.06 1018 10 16 0.00 0.00
1:53 pm 13:53 Cloudy 79 26.1 69 20.6 72 72 WNW 6 9 30.05 1018 10 16 N/A
2:53 pm 14:53 Mostly Cloudy 82 27.8 68 20 63 63 WNW 9 15 30.05 1018 10 16 N/A
3:53 pm 15:53 Mostly Cloudy 83 28.3 69 20.6 63 63 NW 6 9 30.06 1018 10 16 N/A
4:53 pm 16:53 Mostly Sunny 83 28.3 69 20.6 63 63 WNW 9 15 30.05 1018 10 16 N/A
5:53 pm 17:53 Partly Cloudy 81 27.2 69 20.6 67 67 W 7 11 30.05 1018 10 16 N/A
6:53 pm 18:53 Cloudy 83 28.3 70 21.1 65 65 VRB 5 7 30.05 1018 10 16 N/A
7:53 pm 19:53 Mostly Cloudy 83 28.3 68 20 61 61 NW 5 7 30.05 1018 10 16 N/A
8:53 pm 20:53 Partly Cloudy 79 26.1 68 20 69 69 WNW 5 7 30.06 1018 10 16 N/A
9:53 pm 21:53 Cloudy 74 23.3 69 20.6 85 85 SW 5 7 30.09 1019 10 16 0.00 0.00
10:53 pm 22:53 Partly Cloudy 73 22.8 69 20.6 87 87 E 3 6 30.11 1020 10 16 N/A
11:53 pm 23:53 Clear 70 21.1 68 20 93 93 N N/A 30.13 1020 10 16 N/A

Powered by AerisWeather